Mercury, NV

12:22 AM PDT on September 28, 2016 (GMT -0700)
Mercury

Weather History for KDRA - February, 2014

Change the Weather History Date:

Wednesday, February 12, 2014

  Actual Average Record
Temperature  
Mean Temperature 52 °F 47 °F  
Max Temperature 68 °F 59 °F 73 °F (2016)
Min Temperature 37 °F 35 °F 26 °F (1989)
Degree Days  
Heating Degree Days 12    
Cooling Degree Days 0    
Growing Degree Days 2 (Base 50)    
Moisture  
Dew Point 17 °F    
Average Humidity 26    
Maximum Humidity 45    
Minimum Humidity 6    
Precipitation  
Precipitation 0.00 in 0.03 in 1.02 in (2003)
Month to date precipitation 0.33  
Year to date precipitation 1.07  
Sea Level Pressure  
Sea Level Pressure 30.11 in    
Wind  
Wind Speed 4 mph (SW)    
Max Wind Speed 12 mph    
Max Gust Speed -    
Visibility 10 miles    
Events      
T = Trace of Precipitation, MM = Missing Value Source: NWS Daily Summary

Daily Weather History Graph

Daily Weather History Graph

Search for Another Location

Airport or City:

Trip Planner

Search our weather history database for the weather conditions in past years. The results will help you decide how hot, cold, wet, or windy it might be!

Date:

Astronomy

Feb. 12, 2014 Rise Set
Actual Time 6:35 AM PST 5:21 PM PST
Civil Twilight 6:08 AM PST 5:48 PM PST
Nautical Twilight 5:38 AM PST 6:18 PM PST
Astronomical Twilight 5:08 AM PST 6:48 PM PST
Moon 3:40 PM PST (2/12) 4:53 AM PST (2/12)
Length of Visible Light 11h 39m
Length of Day
10h 46m
Waxing Gibbous, 96% of the Moon is Illuminated
Feb 12
Waxing Gibbous
Feb 14
Full
Feb 22
Last Quarter
Mar 1
New
Mar 8
First Quarter

Hourly Weather History & Observations

Time (PST) Temp. Windchill Dew Point Humidity Pressure Visibility Wind Dir Wind Speed Gust Speed Precip Events Conditions
12:52 AM 45.0 °F - 17.1 °F 33% 30.14 in 10.0 mi Calm Calm - N/A   Clear
1:52 AM 39.9 °F - 18.0 °F 41% 30.14 in 10.0 mi Calm Calm - N/A   Clear
2:52 AM 39.9 °F 35.1 °F 16.0 °F 38% 30.13 in 10.0 mi NNW 6.9 mph - N/A   Clear
3:52 AM 37.9 °F 34.4 °F 17.1 °F 43% 30.14 in 10.0 mi SSE 4.6 mph - N/A   Clear
4:52 AM 39.9 °F 36.7 °F 18.0 °F 41% 30.15 in 10.0 mi ESE 4.6 mph - N/A   Clear
5:52 AM 37.9 °F - 18.0 °F 45% 30.16 in 10.0 mi Calm Calm - N/A   Clear
6:52 AM 39.9 °F - 17.1 °F 40% 30.18 in 10.0 mi Calm Calm - N/A   Clear
7:52 AM 42.1 °F - 19.0 °F 40% 30.20 in 10.0 mi Calm Calm - N/A   Clear
8:52 AM 48.0 °F - 18.0 °F 30% 30.20 in 10.0 mi Calm Calm - N/A   Clear
9:52 AM 57.0 °F - 19.0 °F 23% 30.18 in 10.0 mi NE 4.6 mph - N/A   Clear
10:52 AM 63.0 °F - 18.0 °F 18% 30.15 in 10.0 mi SW 9.2 mph - N/A   Clear
11:52 AM 64.9 °F - 16.0 °F 15% 30.12 in 10.0 mi WSW 11.5 mph - N/A   Clear
12:52 PM 66.9 °F - 15.1 °F 14% 30.08 in 10.0 mi SW 9.2 mph - N/A   Clear
1:52 PM 68.0 °F - 14.0 °F 12% 30.06 in 10.0 mi WSW 11.5 mph - N/A   Clear
2:52 PM 66.9 °F - 15.1 °F 14% 30.05 in 10.0 mi WSW 10.4 mph - N/A   Clear
3:52 PM 66.9 °F - 15.1 °F 14% 30.04 in 10.0 mi WSW 10.4 mph - N/A   Clear
4:52 PM 63.0 °F - 16.0 °F 16% 30.05 in 10.0 mi WSW 8.1 mph - N/A   Clear
5:52 PM 60.1 °F - 16.0 °F 18% 30.06 in 10.0 mi Calm Calm - N/A   Clear
6:52 PM 52.0 °F - 17.1 °F 25% 30.08 in 10.0 mi Calm Calm - N/A   Clear
7:52 PM 51.1 °F - 17.1 °F 26% 30.09 in 10.0 mi East 4.6 mph - N/A   Clear
8:52 PM 51.1 °F - 17.1 °F 26% 30.08 in 10.0 mi Calm Calm - N/A   Clear
9:52 PM 48.9 °F - 18.0 °F 29% 30.07 in 10.0 mi Calm Calm - N/A   Clear
10:52 PM 45.0 °F 41.8 °F 18.0 °F 34% 30.07 in 10.0 mi East 5.8 mph - N/A   Clear
11:52 PM 46.0 °F 44.8 °F 18.0 °F 33% 30.06 in 10.0 mi NE 3.5 mph - N/A   Clear